Station GPXA2 - Grave Point, AK Image indicating link to RSS feed of recent meteorological observations for station GPXA2


Conditions at GPXA2 as of
(3:03 am AKDT)
1103 GMT on 05/20/2024:
     

Click on the graph icon in the table below to see a time series plot of the last five days of that observation.

5-day plot - Wind Direction Wind Direction (WDIR): SE ( 130 deg true )
5-day plot - Wind Speed Wind Speed (WSPD): 19.0 kts
5-day plot - Wind Gust Wind Gust (GST): 28.0 kts
5-day plot - Atmospheric Pressure Atmospheric Pressure (PRES):29.99 in
5-day plot - Air Temperature Air Temperature (ATMP): 45.5 °F
5-day plot - Dew Point Dew Point (DEWP): 43.5 °F
5-day plot - Wind Chill Wind Chill (CHILL): 37.2 °F
5-day plot - Wind Speed at 10 Meters Wind Speed at 10 meters (WSPD10M): 19.4 kts
5-day plot - Wind Speed at 20 Meters Wind Speed at 20 meters (WSPD20M): 21.4 kts
5-day plot -  Wind Speed, Wind Gust and Atmospheric Pressure Combined plot of Wind Speed, Gust, and Air Pressure
Previous observations
TIME
(AKDT)
5-day plot - Wind Direction
WDIR
 
5-day plot - Wind Speed
WSPD
kts
5-day plot - Wind Gust
GST
kts
5-day plot - Wave Height
WVHT
ft
5-day plot - Dominant Wave Period
DPD
sec
5-day plot - Average Wave Period
APD
sec
5-day plot - Mean Wave Direction
MWD
 
5-day plot - Atmospheric Pressure
PRES
in
5-day plot - Pressure Tendency
PTDY
in
5-day plot - Air Temperature
ATMP
°F
5-day plot - Water Temperature
WTMP
°F
5-day plot - Dew Point
DEWP
°F
5-day plot - Salinity
SAL
psu
5-day plot - Visibility
VIS
nmi
5-day plot - Tide (above MLLW)
TIDE
ft
2024-05-20 02:53 am SE 20.0 26.0----29.99- 45.5- 43.3---
2024-05-20 02:43 am SE 19.0 26.0----29.99- 45.5- 43.3---
2024-05-20 02:33 am SE 20.0 27.0----29.99- 45.5- 43.5---
2024-05-20 02:23 am SE 18.1 25.1----30.00- 45.5- 43.3---
2024-05-20 02:13 am SE 18.1 26.0----30.00- 45.3- 43.3---
2024-05-20 02:03 am SE 20.0 26.0----30.00- 45.5- 43.5---
2024-05-20 01:53 am SE 20.0 27.0----30.00- 45.3- 43.3---
2024-05-20 01:43 am SE 19.0 26.0----30.00- 45.1- 43.3---
2024-05-20 01:33 am SE 19.0 26.0----30.01- 45.3- 43.3---
2024-05-20 01:23 am SE 15.9 22.9----30.01- 45.3- 43.3---
2024-05-20 01:03 am SE 14.0 21.0----30.01- 45.1- 43.2---
2024-05-20 12:53 am SE 13.0 19.0----30.02- 45.1- 43.2---
2024-05-20 12:43 am SE 14.0 22.9----30.02- 45.0- 43.2---
2024-05-20 12:33 am SE 14.0 21.0----30.02- 45.1- 43.2---
2024-05-20 12:23 am SE 15.0 22.9----30.02- 45.1- 43.2---
2024-05-20 12:14 amESE 14.0 22.9----30.03- 45.0- 43.0---
2024-05-20 12:03 am SE 14.0 22.9----30.03- 45.0- 43.0---
2024-05-19 11:53 pmESE 15.0 22.0----30.03- 45.5- 42.8---
2024-05-19 11:43 pm SE 15.0 22.0----30.03- 45.5- 42.6---
2024-05-19 11:33 pmESE 17.1 26.0----30.03- 45.5- 42.4---
2024-05-19 11:23 pmESE 15.0 24.1----30.03- 45.7- 42.4---
2024-05-19 11:03 pmESE 15.9 22.9----30.03- 45.5- 42.3---
2024-05-19 10:53 pmESE 14.0 25.1----30.03- 45.3- 42.4---
2024-05-19 10:43 pm SE 14.0 20.0----30.03- 45.0- 42.8---
2024-05-19 10:33 pm SE 17.1 22.9----30.03- 45.0- 43.2---
2024-05-19 10:23 pm SE 17.1 25.1----30.03- 45.0- 42.8---
2024-05-19 10:13 pm SE 19.0 27.0----30.03- 45.0- 43.2---
2024-05-19 10:03 pm SE 17.1 25.1----30.04- 45.0- 43.0---
2024-05-19 09:53 pm SE 18.1 25.1----30.04- 44.6- 43.2---
2024-05-19 09:43 pm SE 19.0 26.0----30.04- 44.8- 43.2---
2024-05-19 09:33 pm SE 15.9 25.1----30.04- 44.8- 42.6---
2024-05-19 09:23 pmESE 17.1 26.0----30.04- 44.4- 42.6---
2024-05-19 09:13 pmESE 18.1 28.0----30.03- 44.4- 42.6---
2024-05-19 09:03 pmESE 19.0 31.1----30.03- 44.6- 42.4---
2024-05-19 08:53 pmESE 20.0 31.1----30.03- 44.6- 42.1---
2024-05-19 08:43 pmESE 20.0 31.1----30.03- 44.6- 42.1---
2024-05-19 08:33 pmESE 21.0 34.0----30.03- 44.4- 42.1---
2024-05-19 08:24 pmESE 21.0 31.1----30.03- 44.4- 42.3---
2024-05-19 08:13 pmESE 22.9 34.0----30.03- 44.6- 42.1---
2024-05-19 08:03 pmESE 22.0 34.0----30.04- 44.4- 41.9---
2024-05-19 07:53 pmESE 20.0 29.9----30.04- 44.4- 41.9---
2024-05-19 07:43 pmESE 19.0 28.0----30.05- 44.4- 41.7---
2024-05-19 07:33 pmESE 20.0 29.9----30.05- 44.4- 41.7---
2024-05-19 07:23 pmESE 21.0 29.9----30.05- 44.6- 41.7---
2024-05-19 07:13 pmESE 24.1 34.0----30.04- 44.8- 41.2---
2024-05-19 07:03 pmESE 22.9 35.0----30.04- 44.6- 40.6---
2024-05-19 06:53 pmESE 21.0 32.1----30.05- 44.6- 40.6---
2024-05-19 06:43 pmESE 21.0 32.1----30.05- 44.4- 40.3---
2024-05-19 06:33 pmESE 22.0 36.9----30.05- 44.4- 40.3---
2024-05-19 06:23 pmESE 22.0 36.9----30.05- 44.4- 40.5---
2024-05-19 06:13 pmESE 22.0 35.0----30.05- 44.4- 40.3---
2024-05-19 06:03 pmESE 21.0 40.0----30.05- 44.4- 40.3---
2024-05-19 05:53 pmESE 22.0 36.9----30.05- 44.4- 40.1---
2024-05-19 05:43 pmESE 22.9 36.9----30.05- 44.1- 40.3---
2024-05-19 05:33 pmESE 21.0 35.0----30.06- 44.1- 40.6---
2024-05-19 05:23 pmESE 21.0 35.9----30.06- 44.2- 40.8---
2024-05-19 05:13 pmESE 21.0 36.9----30.06- 44.2- 40.8---
2024-05-19 05:03 pmESE 20.0 34.0----30.07- 44.1- 41.0---
2024-05-19 04:53 pmESE 20.0 34.0----30.07- 43.9- 40.8---
2024-05-19 04:43 pmESE 19.0 39.0----30.08- 44.1- 40.8---
2024-05-19 04:33 pmESE 18.1 32.1----30.09- 44.1- 41.2---
2024-05-19 04:23 pmESE 15.0 24.1----30.09- 44.4- 41.7---
2024-05-19 04:13 pm SE 18.1 25.1----30.09- 45.1- 42.1---
2024-05-19 03:53 pmESE 11.1 20.0----30.10- 44.8- 42.3---
2024-05-19 03:43 pmESE 12.0 20.0----30.10- 45.1- 42.6---
2024-05-19 03:23 pm SE 20.0 28.0----30.09- 46.6- 42.4---
2024-05-19 03:03 pm SE 15.9 24.1----30.08- 47.7- 41.9---
2024-05-19 02:53 pmESE 17.1 29.9----30.08- 48.0- 41.5---
2024-05-19 02:44 pmESE 18.1 33.0----30.07- 48.6- 41.0---
2024-05-19 02:33 pmESE 18.1 28.9----30.06- 48.7- 40.6---
2024-05-19 02:23 pmESE 18.1 31.1----30.06- 49.1- 40.3---
2024-05-19 02:13 pmESE 19.0 33.0----30.06- 49.3- 40.3---
2024-05-19 02:03 pmESE 20.0 34.0----30.06- 49.5- 40.1---
2024-05-19 01:53 pmESE 19.0 31.1----30.06- 49.6- 39.9---
2024-05-19 01:43 pmESE 21.0 34.0----30.05- 49.5- 40.3---
2024-05-19 01:33 pmESE 21.0 33.0----30.05- 49.6- 40.1---
2024-05-19 01:23 pmESE 21.0 34.0----30.05- 49.6- 40.1---
2024-05-19 01:13 pmESE 21.0 34.0----30.05- 49.5- 40.6---
2024-05-19 01:03 pm SE 22.9 34.0----30.06- 48.9- 41.4---
2024-05-19 12:53 pm SE 25.1 34.0----30.06- 48.6- 42.3---
2024-05-19 12:43 pm SE 25.1 33.0----30.06- 48.6- 41.9---
2024-05-19 12:33 pm SE 24.1 36.9----30.06- 48.7- 41.5---
2024-05-19 12:23 pm SE 25.1 33.0----30.06- 48.7- 41.2---
2024-05-19 12:13 pm SE 24.1 34.0----30.06- 48.9- 41.0---
2024-05-19 12:03 pm SE 22.9 34.0----30.07- 48.9- 40.8---
2024-05-19 11:53 am SE 24.1 32.1----30.07- 48.7- 41.0---
2024-05-19 11:43 am SE 22.9 33.0----30.08- 48.4- 41.7---
2024-05-19 11:33 am SE 22.9 31.1----30.08- 47.8- 42.1---
2024-05-19 11:23 am SE 22.9 32.1----30.08- 48.0- 41.9---
2024-05-19 11:03 am SE 24.1 31.1----30.09- 47.8- 42.4---
2024-05-19 10:43 am SE 22.9 29.9----30.09- 47.5- 43.3---
2024-05-19 10:33 am SE 22.0 27.0----30.10- 47.1- 43.7---
2024-05-19 10:23 am SE 21.0 28.0----30.10- 47.3- 43.7---
2024-05-19 10:13 am SE 20.0 26.0----30.10- 47.3- 43.9---
2024-05-19 10:03 am SE 20.0 26.0----30.11- 47.3- 43.5---
2024-05-19 09:53 am SE 18.1 25.1----30.11- 47.1- 43.5---
2024-05-19 09:43 am SE 17.1 22.0----30.11- 46.9- 43.5---
2024-05-19 09:33 am SE 15.0 20.0----30.11- 47.1- 43.7---
2024-05-19 09:23 am SE 12.0 15.0----30.12- 46.9- 43.0---
2024-05-19 09:13 am SE 13.0 18.1----30.12- 46.9- 42.8---
2024-05-19 09:03 am SE 9.9 15.9----30.12- 46.8- 43.0---
2024-05-19 08:53 am SE 5.1 7.0----30.13- 46.2- 43.3---
2024-05-19 08:43 amSSE 5.1 7.0----30.13- 46.0- 42.6---
2024-05-19 08:33 am SE 6.0 8.9----30.13- 46.2- 41.9---
2024-05-19 08:23 amESE 6.0 7.0----30.13- 45.7- 41.9---
2024-05-19 08:13 am SE 5.1 7.0----30.14- 45.7- 42.1---
2024-05-19 08:03 am SE 5.1 7.0----30.14- 45.7- 42.4---
2024-05-19 07:53 am SE 5.1 7.0----30.14- 45.7- 42.3---
2024-05-19 07:43 amESE 4.1 7.0----30.13- 45.7- 42.3---
2024-05-19 07:33 am SE 5.1 7.0----30.14- 45.1- 42.4---
2024-05-19 07:23 am SE 5.1 7.0----30.14- 45.1- 42.3---
2024-05-19 07:13 am SE 4.1 6.0----30.14- 45.0- 42.6---
2024-05-19 07:03 am SE 4.1 6.0----30.14- 45.1- 42.4---
2024-05-19 06:53 amESE 1.9 5.1----30.14- 45.3- 42.6---
2024-05-19 06:43 am SE 1.9 4.1----30.14- 45.1- 42.8---
2024-05-19 06:33 am SE 1.0 2.9----30.14- 45.1- 42.6---
2024-05-19 06:23 am- 0.0 1.9----30.14- 45.0- 42.8---
2024-05-19 06:13 amESE 1.0 2.9----30.14- 44.8- 42.4---
2024-05-19 06:03 am- 0.0 1.0----30.14- 44.8- 42.3---
2024-05-19 05:53 am NE 1.0 1.9----30.14- 44.6- 42.1---
2024-05-19 05:43 am- 0.0 1.9----30.14- 45.0- 42.3---
2024-05-19 05:23 am- 0.0 1.9----30.14- 45.0- 41.5---
2024-05-19 05:03 am- 0.0 1.0----30.14- 44.8- 40.8---
2024-05-19 04:53 am E 1.0 1.9----30.14- 44.8- 41.2---
2024-05-19 04:43 am- 0.0 1.9----30.14- 44.8- 41.2---
2024-05-19 04:33 am E 1.0 1.9----30.14- 45.0- 41.0---
2024-05-19 04:23 amNNE 1.0 1.9----30.14- 45.0- 40.6---
2024-05-19 04:13 am NE 1.0 1.9----30.14- 45.3- 40.8---
2024-05-19 04:03 amSSE 1.0 1.9----30.14- 45.3- 40.1---
2024-05-19 03:53 am NE 1.0 1.9----30.14- 45.3- 39.9---
2024-05-19 03:43 amNNE 1.0 1.9----30.14- 45.3- 39.9---
2024-05-19 03:33 am NE 1.0 1.9----30.14- 45.7- 39.9---
2024-05-19 03:23 am NE 1.0 1.9----30.14- 45.9- 39.7---
2024-05-19 03:13 am- 0.0 1.9----30.14- 45.9- 39.4---
2024-05-19 03:03 am N 1.0 4.1----30.14- 45.9- 39.6---
2024-05-19 02:53 am NE 1.0 1.9----30.14- 45.9- 39.7---